Precipitable_Water
0.68 0.67 0.67 0.66 0.65 0.63 0.62 0.61 0.60 0.59 0.58 0.56 0.55 0.53 0.51 0.51 0.52 0.52 0.49 0.47 0.46 0.45 0.44 0.42 0.44 0.44 0.44 0.43 0.42 0.41 0.41 0.30 0.26 0.27 0.29 0.28 0.32 0.37 0.49 0.52 0.72 0.92 1.06 0.88 0.90 0.95 1.02 1.10 1.12 1.33 1.48 1.51 1.46 1.47 1.63 1.69 1.79 1.70 1.37 1.24 1.12 1.18 1.18 1.32 1.25 1.35 1.45 1.32 1.43 1.50 1.56 1.48 1.37 1.47 1.47 1.55 1.35 1.28 1.20 1.10 1.14 1.24 1.16 1.22 1.26 1.39 1.42 1.47
0.69 0.68 0.68 0.67 0.66 0.65 0.64 0.63 0.62 0.60 0.59 0.58 0.57 0.56 0.54 0.53 0.52 0.53 0.52 0.49 0.48 0.47 0.45 0.45 0.45 0.45 0.45 0.43 0.43 0.43 0.37 0.27 0.19 0.25 0.25 0.35 0.37 0.37 0.44 0.50 0.75 0.87 0.99 0.77 0.72 0.83 0.97 1.03 1.17 1.38 1.40 1.37 1.57 1.39 1.63 1.45 1.74 1.43 1.36 1.30 1.11 1.26 1.30 1.49 1.47 1.48 1.39 1.34 1.47 1.53 1.59 1.50 1.41 1.49 1.45 1.21 1.17 1.15 1.03 1.05 1.09 1.08 1.13 1.27 1.31 1.34 1.37 1.40
0.69 0.69 0.69 0.68 0.68 0.67 0.66 0.66 0.64 0.63 0.61 0.59 0.58 0.57 0.55 0.55 0.54 0.53 0.52 0.52 0.50 0.49 0.47 0.46 0.46 0.46 0.46 0.45 0.43 0.43 0.34 0.20 0.21 0.15 0.16 0.29 0.35 0.39 0.42 0.52 0.72 0.88 0.83 0.66 0.73 0.79 0.92 1.07 1.28 1.37 1.36 1.30 1.40 1.28 1.48 1.43 1.59 1.53 1.37 1.19 1.25 1.43 1.45 1.51 1.52 1.46 1.54 1.47 1.44 1.48 1.53 1.51 1.49 1.51 1.52 1.18 1.12 1.10 0.95 0.90 0.98 0.96 0.97 1.10 1.22 1.28 1.33 1.37
0.69 0.69 0.69 0.69 0.68 0.68 0.68 0.67 0.67 0.66 0.64 0.62 0.60 0.59 0.57 0.56 0.55 0.54 0.53 0.52 0.51 0.50 0.49 0.48 0.49 0.49 0.48 0.45 0.46 0.42 0.30 0.25 0.14 0.23 0.35 0.44 0.36 0.36 0.42 0.48 0.66 0.77 0.79 0.68 0.71 0.77 1.03 1.23 1.36 1.40 1.30 1.25 1.32 1.41 1.31 1.47 1.34 1.47 1.39 1.22 1.31 1.50 1.40 1.50 1.57 1.56 1.61 1.55 1.47 1.48 1.52 1.45 1.51 1.52 1.46 1.25 1.06 1.03 1.02 1.06 0.96 0.87 0.97 1.07 1.18 1.24 1.29 1.33
0.66 0.65 0.66 0.66 0.66 0.66 0.66 0.66 0.66 0.66 0.66 0.65 0.63 0.61 0.59 0.58 0.56 0.55 0.53 0.52 0.52 0.50 0.49 0.51 0.52 0.52 0.50 0.48 0.44 0.41 0.24 0.19 0.16 0.37 0.47 0.44 0.37 0.34 0.42 0.46 0.62 0.70 0.62 0.59 0.65 0.82 0.98 1.22 1.30 1.33 1.28 1.14 1.27 1.31 1.30 1.44 1.52 1.47 1.33 1.43 1.44 1.50 1.43 1.59 1.60 1.63 1.62 1.66 1.54 1.52 1.37 1.40 1.65 1.52 1.42 1.29 0.96 0.88 0.98 1.08 1.10 1.04 1.04 1.06 1.12 1.21 1.28 1.30
0.62 0.62 0.62 0.62 0.62 0.63 0.63 0.64 0.64 0.64 0.64 0.64 0.64 0.62 0.60 0.59 0.58 0.57 0.55 0.53 0.52 0.51 0.50 0.52 0.56 0.53 0.52 0.49 0.43 0.36 0.18 0.12 0.43 0.42 0.59 0.50 0.35 0.34 0.42 0.51 0.59 0.63 0.58 0.52 0.56 0.79 1.02 1.20 1.20 1.11 1.13 1.15 1.12 1.07 1.22 1.35 1.53 1.15 1.35 1.44 1.50 1.50 1.45 1.64 1.63 1.63 1.68 1.59 1.52 1.42 1.52 1.60 1.49 1.44 1.49 1.37 1.17 1.15 1.24 1.21 1.14 1.12 1.10 1.16 1.23 1.23 1.22 1.25
0.59 0.58 0.59 0.59 0.59 0.59 0.60 0.61 0.62 0.62 0.62 0.63 0.63 0.63 0.62 0.60 0.59 0.58 0.56 0.54 0.52 0.51 0.51 0.54 0.56 0.57 0.52 0.48 0.42 0.28 0.12 0.23 0.47 0.50 0.55 0.53 0.41 0.35 0.45 0.54 0.61 0.51 0.50 0.46 0.57 0.76 1.01 1.14 1.14 1.05 1.05 1.05 1.11 1.08 1.14 1.19 1.39 1.29 1.19 1.41 1.44 1.51 1.47 1.67 1.66 1.67 1.69 1.70 1.50 1.56 1.63 1.44 1.45 1.30 1.55 1.39 1.39 1.36 1.33 1.27 1.20 1.20 1.20 1.22 1.16 1.20 1.20 1.23
0.57 0.56 0.56 0.56 0.56 0.55 0.56 0.56 0.57 0.58 0.60 0.61 0.62 0.62 0.61 0.60 0.59 0.59 0.58 0.55 0.52 0.50 0.53 0.56 0.57 0.56 0.54 0.42 0.22 0.14 0.13 0.29 0.44 0.55 0.60 0.56 0.47 0.40 0.48 0.54 0.48 0.44 0.43 0.42 0.53 0.72 0.97 1.02 1.02 1.08 1.01 0.94 0.97 0.97 1.04 1.09 1.24 1.17 1.20 1.37 1.45 1.50 1.53 1.63 1.69 1.68 1.65 1.66 1.68 1.68 1.45 1.43 1.49 1.47 1.55 1.44 1.44 1.41 1.31 1.28 1.23 1.21 1.20 1.21 1.19 1.18 1.22 1.24
0.55 0.55 0.55 0.55 0.55 0.55 0.55 0.55 0.55 0.55 0.56 0.57 0.58 0.60 0.61 0.60 0.59 0.59 0.59 0.56 0.53 0.52 0.53 0.57 0.57 0.56 0.58 0.38 0.20 0.11 0.12 0.30 0.52 0.63 0.69 0.62 0.55 0.47 0.48 0.38 0.42 0.35 0.40 0.45 0.56 0.73 0.90 0.95 1.03 1.09 0.91 0.94 1.02 0.91 1.01 0.99 0.99 1.22 1.26 1.40 1.45 1.49 1.54 1.60 1.61 1.66 1.64 1.70 1.74 1.55 1.47 1.53 1.61 1.66 1.52 1.55 1.49 1.42 1.34 1.25 1.23 1.20 1.17 1.18 1.19 1.20 1.22 1.24
0.54 0.53 0.53 0.53 0.54 0.54 0.54 0.55 0.55 0.55 0.54 0.54 0.54 0.55 0.57 0.58 0.59 0.59 0.60 0.57 0.54 0.53 0.55 0.56 0.59 0.59 0.46 0.33 0.24 0.10 0.31 0.54 0.62 0.69 0.67 0.64 0.62 0.50 0.44 0.39 0.32 0.32 0.34 0.42 0.54 0.71 0.83 0.98 1.07 1.12 1.08 0.96 0.97 0.85 0.99 0.95 0.99 1.23 1.30 1.39 1.39 1.46 1.51 1.62 1.52 1.56 1.62 1.64 1.72 1.48 1.45 1.46 1.67 1.55 1.31 1.61 1.56 1.42 1.28 1.21 1.24 1.16 1.11 1.17 1.19 1.19 1.23 1.23
0.53 0.52 0.51 0.51 0.52 0.53 0.53 0.54 0.55 0.55 0.54 0.53 0.52 0.52 0.53 0.55 0.56 0.58 0.59 0.57 0.55 0.55 0.56 0.57 0.60 0.55 0.35 0.36 0.15 0.13 0.47 0.58 0.67 0.69 0.65 0.61 0.57 0.47 0.38 0.38 0.34 0.27 0.31 0.35 0.47 0.69 0.88 1.09 1.16 1.08 0.99 0.89 0.83 0.76 0.88 0.93 1.02 1.08 1.33 1.40 1.39 1.42 1.50 1.58 1.60 1.55 1.53 1.52 1.69 1.62 1.48 1.50 1.59 1.57 1.39 1.54 1.59 1.46 1.21 1.17 1.19 1.14 1.10 1.14 1.18 1.16 1.20 1.22
0.53 0.52 0.51 0.50 0.51 0.52 0.53 0.54 0.54 0.54 0.54 0.53 0.51 0.50 0.50 0.52 0.54 0.55 0.57 0.57 0.56 0.57 0.58 0.60 0.58 0.52 0.44 0.29 0.18 0.21 0.55 0.67 0.69 0.65 0.61 0.54 0.46 0.47 0.44 0.40 0.34 0.28 0.28 0.29 0.45 0.67 0.90 1.05 1.05 0.96 0.76 0.90 0.76 0.75 0.75 0.98 0.96 0.99 1.25 1.17 1.28 1.34 1.31 1.51 1.47 1.55 1.57 1.47 1.66 1.66 1.46 1.34 1.41 1.32 1.53 1.63 1.63 1.46 1.24 1.15 1.15 1.12 1.10 1.12 1.15 1.14 1.15 1.16
0.53 0.52 0.51 0.50 0.52 0.53 0.54 0.55 0.55 0.54 0.54 0.53 0.51 0.49 0.49 0.51 0.52 0.53 0.55 0.55 0.58 0.59 0.61 0.61 0.58 0.51 0.37 0.18 0.17 0.33 0.56 0.65 0.67 0.60 0.53 0.50 0.44 0.49 0.45 0.40 0.36 0.33 0.30 0.35 0.54 0.79 0.91 0.99 0.97 0.85 0.89 0.83 0.78 0.63 0.71 0.86 0.80 1.19 1.23 1.20 1.14 1.17 1.16 1.40 1.58 1.57 1.52 1.58 1.67 1.59 1.02 1.17 1.34 1.45 1.58 1.67 1.62 1.45 1.24 1.15 1.14 1.13 1.09 1.09 1.11 1.10 1.11 1.16
0.53 0.52 0.51 0.51 0.53 0.54 0.55 0.56 0.56 0.55 0.54 0.52 0.50 0.48 0.48 0.48 0.50 0.52 0.54 0.55 0.59 0.62 0.64 0.61 0.56 0.45 0.29 0.16 0.24 0.42 0.54 0.60 0.64 0.59 0.49 0.40 0.31 0.35 0.39 0.38 0.38 0.37 0.38 0.44 0.69 0.84 0.88 0.93 0.91 0.85 0.86 0.75 0.69 0.75 0.68 0.70 0.93 1.04 1.17 1.20 0.97 0.92 0.97 1.36 1.44 1.51 1.35 1.58 1.58 1.55 1.06 1.14 1.34 1.44 1.60 1.63 1.63 1.40 1.17 1.14 1.12 1.11 1.07 1.06 1.07 1.07 1.07 1.12
0.54 0.54 0.53 0.54 0.56 0.57 0.57 0.56 0.56 0.55 0.54 0.52 0.49 0.46 0.47 0.46 0.49 0.53 0.55 0.56 0.64 0.65 0.64 0.61 0.54 0.39 0.23 0.21 0.34 0.46 0.69 0.68 0.58 0.56 0.51 0.29 0.25 0.23 0.25 0.29 0.31 0.35 0.39 0.56 0.72 0.87 0.88 0.90 0.83 0.70 0.65 0.74 0.75 0.65 0.60 0.61 0.85 1.05 0.94 0.84 0.97 0.87 0.98 1.25 1.47 1.41 1.16 1.46 1.62 1.44 1.11 1.13 1.32 1.44 1.58 1.68 1.57 1.45 1.19 1.13 1.11 1.08 1.07 1.04 1.03 1.02 1.03 1.06
0.56 0.56 0.57 0.58 0.59 0.58 0.58 0.58 0.58 0.56 0.54 0.52 0.48 0.46 0.47 0.48 0.50 0.54 0.59 0.60 0.63 0.63 0.61 0.42 0.44 0.40 0.25 0.18 0.30 0.53 0.57 0.52 0.48 0.56 0.53 0.38 0.27 0.20 0.23 0.22 0.28 0.34 0.49 0.62 0.75 0.77 0.77 0.72 0.63 0.63 0.63 0.67 0.64 0.59 0.57 0.55 0.73 0.92 0.83 0.81 0.80 0.88 0.94 1.05 1.29 1.45 1.42 1.37 1.49 1.33 1.08 1.24 1.28 1.51 1.60 1.66 1.55 1.44 1.24 1.15 1.11 1.08 1.08 1.05 1.01 0.99 0.99 1.01
0.58 0.59 0.60 0.60 0.59 0.59 0.60 0.60 0.59 0.58 0.55 0.51 0.47 0.46 0.53 0.54 0.56 0.60 0.65 0.66 0.62 0.60 0.51 0.36 0.40 0.45 0.13 0.30 0.51 0.44 0.43 0.54 0.60 0.54 0.52 0.50 0.39 0.30 0.26 0.25 0.26 0.37 0.53 0.62 0.61 0.60 0.59 0.55 0.58 0.61 0.62 0.60 0.60 0.59 0.52 0.49 0.57 0.76 0.82 0.78 0.85 0.80 0.90 0.88 1.21 1.37 1.38 1.32 1.22 1.32 1.18 1.19 1.29 1.48 1.57 1.61 1.59 1.42 1.25 1.16 1.13 1.10 1.08 1.05 1.01 0.98 0.96 0.98
0.60 0.61 0.61 0.60 0.60 0.61 0.61 0.61 0.60 0.58 0.55 0.50 0.48 0.52 0.52 0.61 0.65 0.62 0.62 0.63 0.66 0.55 0.50 0.55 0.46 0.30 0.19 0.29 0.33 0.41 0.52 0.53 0.55 0.54 0.55 0.56 0.47 0.37 0.32 0.28 0.36 0.46 0.54 0.48 0.49 0.41 0.47 0.44 0.50 0.46 0.52 0.57 0.56 0.54 0.49 0.45 0.53 0.66 0.69 0.72 0.80 0.90 0.91 0.86 0.88 1.12 1.26 1.27 1.16 1.20 1.23 1.22 1.32 1.46 1.53 1.55 1.58 1.43 1.25 1.17 1.14 1.10 1.08 1.05 1.01 0.96 0.96 0.96
0.61 0.61 0.61 0.61 0.62 0.62 0.62 0.61 0.59 0.56 0.52 0.52 0.58 0.65 0.68 0.73 0.73 0.64 0.56 0.56 0.43 0.30 0.17 0.20 0.22 0.17 0.13 0.26 0.42 0.46 0.49 0.57 0.61 0.57 0.51 0.51 0.50 0.46 0.41 0.44 0.47 0.44 0.37 0.34 0.34 0.36 0.39 0.37 0.42 0.41 0.41 0.48 0.50 0.52 0.54 0.59 0.61 0.68 0.72 0.69 0.72 0.73 0.81 0.81 0.98 1.19 1.18 1.08 1.09 1.11 1.09 1.18 1.29 1.40 1.48 1.52 1.56 1.42 1.29 1.24 1.19 1.14 1.10 1.05 1.01 0.97 0.94 0.95
0.61 0.61 0.61 0.62 0.62 0.62 0.61 0.60 0.58 0.56 0.60 0.61 0.59 0.61 0.59 0.45 0.45 0.40 0.47 0.47 0.35 0.31 0.27 0.29 0.32 0.34 0.34 0.37 0.37 0.46 0.58 0.57 0.48 0.51 0.55 0.57 0.51 0.44 0.42 0.47 0.44 0.43 0.36 0.28 0.31 0.33 0.35 0.26 0.26 0.30 0.38 0.47 0.52 0.55 0.59 0.62 0.63 0.62 0.60 0.69 0.68 0.69 0.75 0.93 1.04 1.17 1.26 1.10 1.06 1.11 1.19 1.23 1.27 1.33 1.41 1.50 1.54 1.44 1.33 1.23 1.18 1.16 1.11 1.04 1.00 0.96 0.95 0.97
0.61 0.61 0.61 0.62 0.62 0.62 0.61 0.60 0.62 0.65 0.68 0.65 0.56 0.44 0.33 0.33 0.24 0.21 0.28 0.33 0.38 0.37 0.33 0.34 0.38 0.36 0.35 0.42 0.45 0.45 0.43 0.45 0.50 0.46 0.52 0.61 0.55 0.43 0.39 0.43 0.37 0.30 0.31 0.33 0.30 0.34 0.33 0.22 0.21 0.28 0.37 0.47 0.52 0.55 0.59 0.61 0.62 0.60 0.57 0.65 0.66 0.69 0.67 0.89 0.99 1.16 1.26 1.08 1.05 1.17 1.20 1.22 1.26 1.34 1.43 1.55 1.49 1.35 1.32 1.25 1.20 1.17 1.15 1.06 1.01 0.98 0.97 1.02
0.60 0.61 0.61 0.61 0.62 0.62 0.61 0.62 0.63 0.67 0.69 0.64 0.53 0.40 0.39 0.38 0.41 0.43 0.35 0.24 0.27 0.31 0.36 0.38 0.44 0.41 0.49 0.51 0.51 0.53 0.51 0.43 0.42 0.46 0.54 0.57 0.49 0.36 0.36 0.37 0.32 0.27 0.31 0.31 0.30 0.26 0.22 0.18 0.18 0.25 0.35 0.45 0.50 0.51 0.56 0.58 0.58 0.58 0.54 0.55 0.61 0.66 0.80 0.97 1.05 1.15 1.21 1.11 1.10 1.23 1.11 1.18 1.28 1.38 1.46 1.44 1.45 1.48 1.45 1.33 1.24 1.22 1.18 1.09 1.03 1.01 0.98 1.04
0.60 0.61 0.62 0.62 0.61 0.63 0.61 0.63 0.62 0.63 0.61 0.53 0.45 0.43 0.40 0.46 0.51 0.50 0.39 0.27 0.22 0.29 0.35 0.40 0.39 0.43 0.45 0.51 0.54 0.56 0.41 0.37 0.35 0.41 0.48 0.52 0.45 0.41 0.38 0.31 0.29 0.29 0.30 0.29 0.22 0.20 0.17 0.17 0.19 0.24 0.30 0.35 0.43 0.47 0.51 0.54 0.56 0.54 0.51 0.50 0.52 0.64 0.65 0.68 0.93 1.08 1.15 1.11 1.10 1.15 1.12 1.14 1.29 1.41 1.44 1.50 1.50 1.50 1.54 1.42 1.33 1.32 1.23 1.15 1.05 1.02 0.98 0.99
0.60 0.61 0.61 0.61 0.62 0.63 0.66 0.65 0.65 0.62 0.54 0.50 0.45 0.42 0.51 0.54 0.49 0.49 0.32 0.21 0.20 0.23 0.33 0.41 0.44 0.43 0.40 0.39 0.51 0.52 0.44 0.40 0.40 0.38 0.53 0.50 0.41 0.46 0.40 0.34 0.30 0.26 0.23 0.25 0.23 0.20 0.15 0.17 0.24 0.23 0.24 0.28 0.33 0.41 0.46 0.48 0.49 0.52 0.49 0.47 0.49 0.53 0.63 0.66 0.85 1.03 1.11 1.17 1.19 1.15 1.07 1.08 1.19 1.17 1.30 1.44 1.52 1.47 1.50 1.46 1.40 1.37 1.38 1.34 1.22 1.13 1.08 0.99
0.61 0.61 0.60 0.60 0.59 0.62 0.63 0.67 0.57 0.53 0.58 0.52 0.44 0.50 0.53 0.50 0.48 0.46 0.33 0.27 0.27 0.24 0.37 0.38 0.43 0.40 0.43 0.54 0.53 0.45 0.46 0.45 0.45 0.48 0.51 0.51 0.45 0.43 0.41 0.43 0.35 0.24 0.22 0.23 0.23 0.20 0.18 0.22 0.25 0.22 0.21 0.23 0.28 0.34 0.42 0.46 0.46 0.48 0.48 0.46 0.47 0.46 0.52 0.70 0.90 0.90 0.87 0.88 1.06 1.05 0.77 0.83 1.09 1.20 1.25 1.36 1.39 1.38 1.46 1.39 1.35 1.37 1.41 1.40 1.29 1.21 1.12 1.08
0.61 0.60 0.59 0.59 0.58 0.60 0.63 0.51 0.49 0.54 0.50 0.42 0.44 0.49 0.52 0.51 0.47 0.50 0.41 0.24 0.15 0.20 0.28 0.29 0.39 0.33 0.45 0.38 0.45 0.45 0.44 0.40 0.49 0.52 0.50 0.49 0.54 0.43 0.44 0.39 0.38 0.25 0.24 0.24 0.21 0.20 0.18 0.22 0.22 0.20 0.19 0.19 0.23 0.29 0.40 0.45 0.44 0.44 0.44 0.48 0.48 0.45 0.57 0.69 0.80 0.81 0.69 0.62 0.91 1.09 0.71 0.67 1.00 1.06 1.19 1.27 1.29 1.29 1.40 1.39 1.38 1.41 1.43 1.42 1.38 1.34 1.21 1.08
0.60 0.59 0.59 0.58 0.57 0.58 0.45 0.38 0.50 0.50 0.38 0.41 0.51 0.50 0.52 0.55 0.54 0.53 0.35 0.20 0.16 0.21 0.23 0.31 0.29 0.33 0.41 0.42 0.44 0.46 0.27 0.32 0.46 0.52 0.51 0.52 0.44 0.48 0.37 0.35 0.35 0.36 0.33 0.30 0.22 0.17 0.19 0.21 0.20 0.21 0.20 0.18 0.19 0.22 0.33 0.42 0.42 0.41 0.50 0.47 0.46 0.45 0.57 0.70 0.77 0.77 0.77 0.95 1.04 1.04 0.91 0.69 0.67 0.87 1.13 1.27 1.23 1.25 1.29 1.34 1.38 1.41 1.43 1.43 1.43 1.41 1.33 1.20
0.58 0.57 0.57 0.58 0.57 0.56 0.44 0.47 0.45 0.39 0.39 0.45 0.53 0.54 0.57 0.62 0.62 0.55 0.37 0.14 0.13 0.26 0.21 0.25 0.30 0.33 0.30 0.34 0.45 0.39 0.29 0.35 0.29 0.38 0.46 0.50 0.46 0.43 0.40 0.34 0.33 0.32 0.34 0.31 0.17 0.19 0.21 0.20 0.20 0.19 0.19 0.18 0.16 0.19 0.28 0.38 0.39 0.44 0.48 0.48 0.46 0.45 0.56 0.70 0.77 0.80 0.83 0.78 0.71 0.88 0.94 0.68 0.66 0.83 1.09 1.18 1.08 1.14 1.15 1.21 1.30 1.37 1.42 1.44 1.45 1.45 1.40 1.36
0.57 0.56 0.56 0.56 0.55 0.54 0.56 0.47 0.41 0.36 0.49 0.57 0.60 0.66 0.68 0.67 0.61 0.45 0.27 0.16 0.25 0.26 0.32 0.24 0.32 0.27 0.26 0.29 0.33 0.35 0.30 0.31 0.24 0.34 0.43 0.49 0.47 0.44 0.37 0.37 0.38 0.37 0.35 0.31 0.21 0.22 0.23 0.25 0.25 0.23 0.20 0.16 0.17 0.20 0.25 0.30 0.31 0.41 0.44 0.48 0.53 0.58 0.63 0.69 0.77 0.79 0.82 0.71 0.61 0.74 0.85 0.61 0.60 0.82 0.90 1.07 1.03 1.00 1.05 1.15 1.25 1.32 1.37 1.42 1.44 1.47 1.45 1.44
0.56 0.55 0.56 0.56 0.52 0.50 0.49 0.53 0.46 0.55 0.65 0.71 0.73 0.75 0.75 0.66 0.51 0.30 0.20 0.14 0.29 0.22 0.29 0.27 0.27 0.22 0.25 0.22 0.24 0.27 0.26 0.28 0.30 0.32 0.38 0.40 0.43 0.42 0.44 0.47 0.40 0.37 0.33 0.31 0.26 0.23 0.24 0.28 0.29 0.24 0.20 0.20 0.20 0.21 0.25 0.27 0.31 0.40 0.45 0.50 0.61 0.67 0.69 0.74 0.77 0.79 0.75 0.58 0.60 0.75 0.81 0.70 0.52 0.72 0.81 0.83 0.82 0.93 1.04 1.14 1.25 1.32 1.36 1.42 1.46 1.48 1.47 1.44
0.54 0.55 0.55 0.58 0.46 0.51 0.51 0.41 0.50 0.64 0.69 0.72 0.74 0.71 0.60 0.46 0.28 0.21 0.15 0.18 0.29 0.26 0.29 0.26 0.24 0.27 0.22 0.20 0.20 0.24 0.25 0.26 0.28 0.32 0.31 0.40 0.39 0.40 0.39 0.36 0.39 0.33 0.31 0.27 0.24 0.23 0.25 0.26 0.24 0.26 0.25 0.24 0.24 0.22 0.25 0.28 0.33 0.38 0.39 0.46 0.60 0.61 0.70 0.68 0.67 0.73 0.56 0.48 0.63 0.79 0.79 0.76 0.50 0.63 0.85 0.94 1.05 1.11 1.09 1.04 1.12 1.22 1.29 1.35 1.43 1.48 1.49 1.47
0.52 0.53 0.56 0.54 0.54 0.61 0.43 0.40 0.56 0.64 0.67 0.70 0.69 0.57 0.47 0.24 0.24 0.17 0.17 0.32 0.18 0.22 0.24 0.25 0.26 0.26 0.24 0.23 0.22 0.23 0.23 0.25 0.29 0.31 0.30 0.33 0.33 0.31 0.32 0.31 0.31 0.27 0.24 0.23 0.21 0.24 0.23 0.24 0.26 0.26 0.31 0.27 0.23 0.21 0.23 0.27 0.32 0.35 0.38 0.42 0.44 0.51 0.52 0.47 0.53 0.48 0.51 0.49 0.61 0.74 0.82 0.71 0.62 0.74 0.87 0.98 1.07 1.18 1.23 1.20 1.19 1.25 1.30 1.35 1.41 1.46 1.48 1.51
0.49 0.51 0.53 0.53 0.57 0.52 0.54 0.58 0.66 0.68 0.72 0.70 0.61 0.50 0.31 0.21 0.15 0.21 0.22 0.23 0.19 0.25 0.22 0.26 0.25 0.25 0.26 0.23 0.22 0.23 0.25 0.24 0.30 0.33 0.34 0.32 0.30 0.27 0.30 0.33 0.33 0.30 0.22 0.24 0.22 0.21 0.23 0.28 0.26 0.27 0.27 0.30 0.28 0.20 0.21 0.22 0.29 0.32 0.35 0.39 0.41 0.39 0.39 0.37 0.44 0.51 0.54 0.65 0.72 0.72 0.82 0.63 0.73 0.82 0.99 0.96 1.08 1.20 1.28 1.33 1.34 1.32 1.34 1.38 1.41 1.45 1.49 1.51
0.47 0.50 0.45 0.52 0.56 0.59 0.62 0.69 0.71 0.72 0.68 0.62 0.49 0.38 0.24 0.18 0.18 0.28 0.24 0.23 0.23 0.27 0.25 0.23 0.24 0.24 0.24 0.23 0.23 0.23 0.20 0.23 0.24 0.29 0.32 0.31 0.26 0.23 0.25 0.31 0.33 0.29 0.27 0.24 0.22 0.22 0.20 0.21 0.25 0.27 0.22 0.32 0.28 0.26 0.25 0.25 0.29 0.32 0.39 0.40 0.42 0.42 0.37 0.33 0.40 0.39 0.43 0.49 0.62 0.78 0.68 0.60 0.56 0.66 0.98 1.04 1.14 1.21 1.29 1.37 1.43 1.45 1.46 1.48 1.51 1.51 1.52 1.51
0.47 0.47 0.49 0.50 0.54 0.61 0.67 0.71 0.72 0.71 0.65 0.53 0.37 0.26 0.19 0.19 0.22 0.20 0.21 0.22 0.25 0.26 0.22 0.24 0.21 0.22 0.21 0.24 0.24 0.24 0.24 0.19 0.24 0.26 0.27 0.27 0.23 0.23 0.23 0.26 0.29 0.29 0.27 0.22 0.24 0.25 0.25 0.24 0.30 0.32 0.31 0.33 0.29 0.31 0.33 0.33 0.34 0.39 0.44 0.47 0.42 0.41 0.46 0.38 0.44 0.48 0.51 0.55 0.56 0.66 0.64 0.76 0.71 0.98 1.05 1.11 1.15 1.18 1.27 1.29 1.34 1.35 1.41 1.46 1.57 1.57 1.54 1.54
0.45 0.45 0.51 0.44 0.47 0.54 0.66 0.71 0.73 0.68 0.57 0.41 0.29 0.22 0.21 0.22 0.20 0.23 0.22 0.27 0.26 0.24 0.22 0.22 0.21 0.20 0.20 0.21 0.23 0.22 0.25 0.22 0.22 0.23 0.23 0.25 0.26 0.24 0.26 0.25 0.25 0.26 0.24 0.23 0.26 0.23 0.27 0.24 0.31 0.33 0.33 0.31 0.33 0.35 0.35 0.37 0.25 0.37 0.41 0.39 0.44 0.53 0.47 0.41 0.46 0.57 0.61 0.58 0.52 0.73 0.67 0.76 0.94 0.95 1.02 1.06 1.07 1.12 1.20 1.22 1.24 1.27 1.32 1.35 1.42 1.55 1.58 1.63
0.41 0.47 0.41 0.44 0.48 0.58 0.65 0.70 0.69 0.62 0.51 0.37 0.26 0.21 0.26 0.27 0.28 0.26 0.27 0.25 0.26 0.27 0.23 0.18 0.19 0.20 0.20 0.20 0.20 0.20 0.22 0.24 0.22 0.23 0.22 0.25 0.24 0.27 0.26 0.26 0.29 0.28 0.26 0.25 0.25 0.29 0.25 0.27 0.31 0.31 0.29 0.35 0.41 0.41 0.42 0.38 0.40 0.37 0.35 0.46 0.50 0.53 0.49 0.42 0.37 0.48 0.50 0.45 0.54 0.67 0.57 0.61 0.62 0.55 0.96 0.97 0.97 1.05 1.12 1.15 1.19 1.25 1.33 1.38 1.43 1.46 1.52 1.55
0.46 0.48 0.51 0.47 0.53 0.62 0.66 0.68 0.64 0.56 0.44 0.33 0.23 0.26 0.33 0.25 0.29 0.28 0.29 0.28 0.28 0.27 0.23 0.21 0.22 0.26 0.21 0.21 0.20 0.21 0.22 0.20 0.21 0.22 0.22 0.25 0.23 0.31 0.28 0.27 0.29 0.31 0.31 0.32 0.29 0.30 0.32 0.26 0.29 0.32 0.33 0.36 0.40 0.40 0.38 0.42 0.40 0.37 0.39 0.49 0.43 0.37 0.34 0.42 0.44 0.37 0.38 0.39 0.48 0.58 0.65 0.64 0.64 0.64 0.82 0.84 0.89 0.97 1.06 1.12 1.14 1.17 1.25 1.32 1.41 1.45 1.51 1.56
0.52 0.50 0.39 0.46 0.59 0.62 0.64 0.66 0.57 0.47 0.34 0.24 0.21 0.20 0.26 0.27 0.29 0.28 0.29 0.29 0.28 0.27 0.24 0.25 0.23 0.25 0.25 0.22 0.24 0.25 0.24 0.21 0.23 0.21 0.21 0.25 0.23 0.30 0.30 0.30 0.27 0.32 0.34 0.33 0.30 0.33 0.34 0.27 0.28 0.34 0.33 0.36 0.36 0.36 0.29 0.33 0.38 0.40 0.44 0.42 0.47 0.44 0.40 0.38 0.37 0.46 0.47 0.39 0.40 0.47 0.58 0.52 0.70 0.74 0.86 0.90 0.97 1.02 1.06 1.08 1.11 1.20 1.26 1.31 1.35 1.37 1.43 1.50
0.46 0.42 0.34 0.48 0.56 0.59 0.62 0.60 0.47 0.40 0.30 0.21 0.22 0.23 0.28 0.25 0.28 0.30 0.30 0.29 0.25 0.26 0.25 0.26 0.27 0.25 0.26 0.26 0.26 0.24 0.26 0.25 0.24 0.24 0.24 0.27 0.28 0.33 0.31 0.33 0.30 0.31 0.35 0.35 0.32 0.37 0.32 0.35 0.26 0.31 0.37 0.37 0.30 0.33 0.32 0.32 0.30 0.32 0.35 0.35 0.38 0.41 0.49 0.43 0.46 0.43 0.41 0.41 0.40 0.39 0.42 0.53 0.70 0.89 0.93 0.97 1.04 1.07 1.09 1.09 1.15 1.22 1.28 1.34 1.39 1.40 1.43 1.51
0.56 0.40 0.35 0.54 0.55 0.59 0.56 0.46 0.38 0.31 0.28 0.28 0.28 0.24 0.26 0.25 0.28 0.29 0.30 0.31 0.30 0.29 0.28 0.27 0.28 0.25 0.27 0.26 0.25 0.28 0.26 0.27 0.26 0.24 0.24 0.26 0.27 0.25 0.33 0.32 0.33 0.32 0.34 0.34 0.32 0.36 0.33 0.32 0.29 0.31 0.31 0.31 0.31 0.36 0.35 0.37 0.37 0.35 0.35 0.35 0.36 0.35 0.37 0.35 0.34 0.52 0.53 0.43 0.39 0.38 0.36 0.54 0.76 0.99 1.00 1.00 1.08 1.10 1.15 1.16 1.18 1.26 1.32 1.36 1.41 1.44 1.46 1.47
0.45 0.34 0.37 0.60 0.60 0.56 0.45 0.36 0.35 0.35 0.29 0.24 0.23 0.25 0.24 0.29 0.28 0.29 0.29 0.30 0.29 0.29 0.30 0.30 0.30 0.30 0.28 0.28 0.29 0.28 0.27 0.26 0.27 0.26 0.27 0.25 0.27 0.29 0.32 0.34 0.33 0.35 0.32 0.30 0.31 0.38 0.41 0.37 0.33 0.31 0.32 0.33 0.35 0.37 0.38 0.38 0.37 0.37 0.36 0.34 0.37 0.36 0.37 0.36 0.30 0.40 0.49 0.48 0.51 0.46 0.39 0.48 0.87 1.00 1.04 1.05 1.08 1.13 1.19 1.21 1.18 1.26 1.33 1.37 1.39 1.44 1.50 1.54
0.45 0.40 0.53 0.60 0.64 0.51 0.41 0.34 0.38 0.34 0.29 0.30 0.32 0.29 0.28 0.27 0.27 0.29 0.29 0.29 0.28 0.29 0.28 0.27 0.28 0.30 0.31 0.30 0.30 0.29 0.29 0.27 0.28 0.26 0.29 0.28 0.29 0.31 0.34 0.34 0.35 0.33 0.33 0.32 0.34 0.38 0.48 0.34 0.30 0.32 0.36 0.38 0.38 0.38 0.38 0.39 0.38 0.36 0.36 0.36 0.34 0.31 0.33 0.34 0.33 0.41 0.41 0.46 0.39 0.41 0.34 0.48 0.83 1.03 1.05 1.09 1.13 1.18 1.24 1.26 1.24 1.28 1.33 1.33 1.35 1.42 1.51 1.56
0.49 0.43 0.44 0.58 0.56 0.51 0.38 0.27 0.28 0.29 0.30 0.31 0.28 0.28 0.30 0.26 0.26 0.27 0.29 0.29 0.29 0.29 0.29 0.30 0.31 0.32 0.32 0.34 0.33 0.31 0.33 0.26 0.30 0.29 0.28 0.30 0.30 0.34 0.34 0.33 0.34 0.32 0.30 0.32 0.30 0.38 0.33 0.36 0.35 0.29 0.30 0.32 0.33 0.34 0.33 0.35 0.36 0.34 0.34 0.35 0.36 0.34 0.34 0.37 0.40 0.48 0.37 0.46 0.43 0.34 0.26 0.42 0.77 0.99 1.02 1.05 1.07 1.09 1.14 1.22 1.26 1.24 1.33 1.35 1.41 1.50 1.59 1.58
0.48 0.50 0.49 0.47 0.50 0.45 0.34 0.33 0.30 0.31 0.29 0.26 0.25 0.25 0.26 0.27 0.30 0.30 0.30 0.28 0.32 0.31 0.30 0.30 0.33 0.35 0.34 0.37 0.35 0.36 0.36 0.32 0.29 0.33 0.33 0.32 0.31 0.33 0.32 0.32 0.34 0.32 0.34 0.38 0.38 0.46 0.36 0.37 0.34 0.27 0.25 0.25 0.25 0.26 0.26 0.28 0.31 0.34 0.35 0.34 0.36 0.38 0.37 0.35 0.32 0.39 0.33 0.45 0.47 0.37 0.35 0.56 0.78 0.91 0.92 0.95 0.98 1.00 1.08 1.13 1.22 1.28 1.29 1.30 1.36 1.43 1.51 1.54
0.38 0.32 0.40 0.39 0.42 0.37 0.35 0.37 0.35 0.31 0.28 0.27 0.24 0.25 0.27 0.25 0.30 0.31 0.31 0.31 0.34 0.34 0.34 0.34 0.36 0.36 0.34 0.34 0.33 0.34 0.35 0.38 0.33 0.33 0.33 0.31 0.32 0.32 0.33 0.34 0.34 0.35 0.38 0.39 0.39 0.41 0.36 0.40 0.38 0.35 0.32 0.30 0.32 0.34 0.37 0.37 0.33 0.30 0.32 0.33 0.32 0.37 0.40 0.39 0.39 0.34 0.31 0.42 0.41 0.45 0.45 0.51 0.61 0.73 0.80 0.87 0.90 0.89 0.95 1.06 1.14 1.21 1.27 1.32 1.38 1.43 1.47 1.49
0.52 0.39 0.37 0.31 0.39 0.34 0.34 0.33 0.30 0.30 0.27 0.30 0.23 0.26 0.25 0.26 0.27 0.28 0.31 0.28 0.32 0.34 0.34 0.35 0.33 0.30 0.32 0.33 0.33 0.35 0.39 0.36 0.38 0.35 0.34 0.33 0.35 0.35 0.35 0.35 0.35 0.37 0.37 0.34 0.38 0.36 0.35 0.34 0.39 0.39 0.36 0.36 0.38 0.36 0.35 0.32 0.30 0.32 0.32 0.33 0.35 0.34 0.36 0.35 0.34 0.31 0.42 0.42 0.37 0.51 0.56 0.46 0.54 0.68 0.76 0.81 0.87 0.91 0.96 1.03 1.11 1.18 1.23 1.26 1.29 1.32 1.35 1.34
0.39 0.48 0.52 0.55 0.38 0.29 0.31 0.30 0.33 0.30 0.30 0.29 0.26 0.28 0.25 0.24 0.24 0.23 0.26 0.31 0.33 0.35 0.32 0.35 0.35 0.34 0.33 0.31 0.34 0.32 0.37 0.37 0.37 0.34 0.37 0.36 0.34 0.33 0.31 0.34 0.34 0.38 0.37 0.34 0.37 0.33 0.33 0.31 0.39 0.40 0.38 0.38 0.39 0.37 0.35 0.32 0.31 0.31 0.33 0.35 0.37 0.39 0.38 0.34 0.36 0.39 0.42 0.33 0.31 0.47 0.56 0.49 0.57 0.69 0.79 0.85 0.89 0.91 0.96 1.02 1.09 1.15 1.21 1.24 1.22 1.21 1.24 1.28
0.57 0.56 0.55 0.64 0.42 0.40 0.38 0.37 0.37 0.30 0.28 0.29 0.28 0.27 0.25 0.25 0.23 0.25 0.25 0.26 0.27 0.32 0.35 0.29 0.33 0.36 0.36 0.35 0.33 0.32 0.34 0.31 0.33 0.39 0.38 0.36 0.35 0.34 0.32 0.34 0.34 0.38 0.36 0.35 0.35 0.37 0.33 0.32 0.39 0.39 0.39 0.37 0.38 0.37 0.36 0.32 0.31 0.30 0.32 0.34 0.43 0.44 0.45 0.44 0.43 0.45 0.43 0.39 0.39 0.46 0.54 0.56 0.67 0.75 0.85 0.92 0.99 0.99 1.01 1.07 1.09 1.08 1.13 1.20 1.20 1.18 1.19 1.22
0.44 0.47 0.46 0.56 0.52 0.45 0.42 0.38 0.35 0.29 0.27 0.30 0.26 0.28 0.26 0.26 0.24 0.25 0.27 0.26 0.24 0.26 0.35 0.31 0.34 0.36 0.36 0.35 0.35 0.31 0.35 0.36 0.38 0.36 0.42 0.40 0.38 0.37 0.35 0.36 0.35 0.36 0.35 0.32 0.34 0.36 0.32 0.30 0.38 0.38 0.36 0.37 0.38 0.36 0.35 0.34 0.32 0.29 0.32 0.39 0.43 0.47 0.49 0.51 0.51 0.52 0.51 0.51 0.55 0.56 0.56 0.58 0.78 0.92 0.94 1.01 1.03 1.03 1.02 0.99 1.01 1.06 1.09 1.13 1.15 1.15 1.17 1.19
0.62 0.63 0.62 0.47 0.35 0.40 0.41 0.38 0.34 0.30 0.27 0.30 0.28 0.29 0.28 0.28 0.26 0.28 0.25 0.30 0.27 0.29 0.31 0.31 0.35 0.35 0.35 0.35 0.35 0.35 0.39 0.39 0.40 0.41 0.44 0.43 0.38 0.43 0.36 0.37 0.38 0.34 0.34 0.32 0.32 0.34 0.34 0.32 0.37 0.36 0.32 0.34 0.38 0.36 0.33 0.31 0.30 0.30 0.30 0.33 0.39 0.46 0.41 0.48 0.50 0.58 0.52 0.49 0.54 0.57 0.54 0.58 0.79 0.93 0.98 0.99 0.98 0.96 0.94 0.96 0.98 1.01 1.05 1.07 1.07 1.09 1.12 1.16
0.68 0.70 0.73 0.56 0.35 0.42 0.36 0.39 0.36 0.31 0.27 0.32 0.31 0.31 0.29 0.27 0.28 0.28 0.24 0.30 0.33 0.31 0.32 0.32 0.35 0.33 0.32 0.30 0.31 0.35 0.40 0.41 0.43 0.44 0.45 0.46 0.47 0.46 0.44 0.43 0.41 0.37 0.35 0.32 0.35 0.31 0.33 0.33 0.31 0.32 0.29 0.32 0.37 0.39 0.35 0.32 0.28 0.25 0.28 0.35 0.40 0.47 0.51 0.55 0.60 0.64 0.57 0.59 0.53 0.47 0.48 0.66 0.78 0.89 0.85 0.89 0.93 0.93 0.94 0.94 0.95 0.98 1.00 0.99 0.99 1.03 1.09 1.15
Wind_Speed
13 13 13 14 14 14 14 14 14 14 14 14 14 14 14 13 13 13 13 13 12 12 12 12 12 12 12 13 13 14 14 15 15 16 17 17 17 17 16 17 18 18 18 17 16 14 13 11 11 10 9 8 7 5 4 3 3 3 3 4 5 7 8 8 10 10 10 11 12 12 12 12 12 10 9 10 11 12 11 11 12 11 12 14 16 19 20 20
14 14 14 14 14 14 14 14 14 14 14 14 14 14 14 14 14 14 14 14 13 13 13 12 12 12 12 13 13 14 14 15 16 17 19 18 17 18 18 18 18 19 18 18 18 16 14 13 12 12 10 8 7 6 5 4 3 3 3 4 5 6 7 8 9 10 10 11 12 12 12 12 12 11 10 10 11 12 12 12 13 14 15 16 18 20 19 20
14 14 14 14 14 14 15 15 15 15 15 15 15 15 15 15 15 15 15 15 15 14 14 13 13 13 12 13 13 14 14 15 16 17 18 19 19 19 19 19 19 20 19 18 19 17 16 15 14 13 11 9 8 7 6 4 4 3 3 4 3 5 6 7 10 10 11 12 13 12 12 12 12 11 10 11 11 11 11 12 14 15 17 19 19 19 19 19
15 14 14 14 14 15 15 15 15 16 16 16 16 16 16 16 15 15 15 15 16 15 15 14 14 13 13 13 13 13 14 14 15 16 16 17 20 20 20 20 20 20 19 18 19 18 16 15 15 14 11 9 8 8 6 5 4 3 4 3 3 5 6 7 9 10 11 13 13 12 12 12 11 10 11 12 11 10 10 12 14 17 19 20 19 19 19 18
15 15 15 15 15 15 15 16 16 16 16 16 16 16 16 16 16 16 16 16 16 16 16 15 14 14 14 13 13 13 13 13 15 16 15 16 19 21 21 21 21 21 19 18 19 18 16 15 14 13 12 10 9 8 7 7 6 3 3 3 4 6 6 7 9 11 12 12 13 12 11 12 12 11 11 12 10 9 11 13 15 18 19 19 19 19 18 18
16 16 16 16 15 15 16 16 16 16 16 17 17 17 17 17 17 17 16 16 17 17 16 16 15 15 14 14 13 13 13 14 15 15 15 16 18 21 21 21 21 21 20 19 18 19 17 15 14 13 12 10 9 9 7 9 7 4 3 3 5 5 6 8 9 11 13 12 12 11 11 12 12 11 10 10 9 9 11 13 15 17 18 19 19 18 18 17
17 17 16 16 16 16 16 16 16 16 16 17 17 17 17 17 17 17 17 17 17 17 17 16 16 15 15 14 14 14 14 15 16 16 15 15 18 20 21 21 21 21 21 20 19 19 18 17 16 14 12 10 10 10 8 9 9 6 3 3 5 6 6 8 9 11 11 12 11 10 12 13 12 11 10 10 10 9 12 15 16 17 18 18 18 17 17 17
18 18 17 17 17 16 16 16 16 16 16 17 17 17 18 18 18 18 17 17 17 17 17 17 16 16 15 15 15 14 15 16 16 16 16 16 18 20 20 20 21 21 22 21 20 20 19 18 17 15 13 12 11 10 9 9 8 7 5 4 5 5 7 8 9 10 10 11 11 11 12 11 11 11 9 9 10 11 14 16 17 17 18 17 17 17 17 17
19 19 18 18 17 17 17 17 16 16 17 17 17 17 18 18 18 18 18 18 18 18 17 17 17 17 16 16 15 15 16 16 16 16 16 16 18 20 20 20 21 22 22 22 21 21 20 19 19 17 14 13 12 11 11 10 7 8 7 5 5 5 7 8 9 9 9 9 11 12 11 10 10 11 9 9 11 13 16 17 17 17 17 17 17 17 17 17
20 19 19 18 18 18 17 17 17 17 17 17 17 17 17 18 18 18 18 18 18 18 17 17 18 17 17 17 16 16 17 16 16 16 16 17 18 20 20 20 22 22 22 22 22 22 21 20 19 18 15 13 13 12 13 11 8 9 9 6 7 7 7 8 9 9 8 8 11 13 11 9 10 10 10 11 13 16 17 17 17 17 17 16 16 16 17 17
20 20 20 19 19 18 18 18 18 17 17 17 17 17 17 17 17 17 18 18 18 18 17 18 18 17 17 17 17 18 17 16 17 17 16 17 18 21 22 21 22 23 23 22 23 24 23 21 19 17 15 14 13 12 13 12 8 10 10 7 8 8 7 7 8 9 8 8 11 13 11 10 10 9 11 13 14 17 18 18 18 17 16 16 16 16 16 16
21 21 21 20 20 19 19 19 18 18 18 17 17 17 17 17 17 17 17 18 18 18 18 18 17 18 18 18 19 20 18 17 17 17 17 17 18 20 21 22 22 23 23 23 23 25 24 22 19 17 16 14 13 12 12 12 9 10 12 10 8 6 6 7 7 8 8 7 11 13 11 10 10 10 12 13 14 17 18 17 17 17 15 15 16 16 15 16
22 22 22 21 20 20 19 19 19 19 18 18 17 17 17 16 16 17 17 17 17 17 17 18 17 17 17 19 20 20 19 18 18 18 18 18 18 20 21 22 22 23 23 23 24 25 25 22 20 18 16 15 15 14 12 11 10 11 12 11 9 6 6 7 7 8 7 7 11 12 11 11 11 11 12 13 14 17 17 17 17 16 15 16 15 15 15 16
23 23 23 22 21 20 19 19 19 19 18 18 17 17 17 16 16 16 16 16 16 16 17 17 17 17 18 19 19 19 19 19 19 19 19 19 19 19 21 22 22 23 23 24 24 24 24 23 21 19 17 17 17 15 12 11 11 12 11 10 9 8 8 8 9 9 7 8 11 11 10 11 12 11 13 13 14 17 17 17 17 16 16 16 16 16 15 15
24 23 23 21 20 19 19 18 18 18 18 18 18 17 17 16 16 15 14 14 14 15 16 16 17 17 17 19 19 18 19 19 20 21 20 19 20 20 21 22 22 23 24 25 25 24 23 22 21 20 18 19 18 15 13 12 11 12 12 11 10 9 9 9 10 10 8 8 10 9 9 10 12 12 14 15 14 16 17 17 17 16 16 17 16 15 15 15
24 23 22 20 19 18 18 18 18 18 18 18 17 17 16 15 15 14 13 13 13 13 14 15 16 16 17 19 18 18 19 20 20 21 20 20 21 20 21 22 22 23 24 25 25 23 23 21 21 21 19 19 18 16 14 13 12 14 13 12 12 11 10 9 9 10 9 9 9 8 8 9 11 12 15 17 15 15 17 17 17 16 16 17 16 15 15 15
23 22 20 19 19 18 17 17 17 17 17 17 16 16 15 14 14 13 13 12 12 13 13 14 16 16 17 18 18 18 19 20 19 20 21 22 21 20 20 21 21 23 23 24 24 23 23 22 21 21 19 18 18 16 15 15 15 15 14 13 13 12 11 10 9 10 10 10 9 8 9 9 11 14 16 17 15 15 17 17 17 16 16 17 16 16 15 15
22 21 20 18 18 17 17 17 17 17 17 16 15 14 14 13 13 12 12 12 11 12 13 14 15 15 16 18 18 19 19 19 19 20 21 22 22 21 21 21 21 22 21 21 23 23 23 22 21 21 19 19 19 17 17 16 15 15 15 13 13 13 13 12 10 10 11 11 10 9 9 10 11 15 16 17 16 15 17 17 16 17 16 16 16 16 15 15
21 20 18 17 17 16 17 17 17 16 14 13 11 11 11 11 11 12 12 12 12 12 13 14 15 15 16 18 19 19 19 19 20 21 22 22 22 22 22 21 21 21 20 20 21 23 23 22 21 22 22 21 20 19 18 16 15 15 15 14 14 14 13 13 10 10 12 11 11 11 10 11 13 15 17 17 16 15 16 17 16 17 17 16 16 16 15 15
20 18 17 16 16 16 16 16 15 13 11 9 9 9 9 10 10 11 12 13 13 13 13 15 16 16 16 17 18 18 18 19 20 21 22 23 23 22 23 22 21 21 21 21 21 22 22 23 24 24 23 22 21 19 19 17 15 14 14 14 14 14 13 13 11 11 12 11 12 12 10 11 13 15 15 15 15 14 15 16 16 16 17 17 16 16 15 15
18 17 16 16 15 15 15 14 13 11 9 8 8 8 9 9 9 10 11 12 13 14 14 15 15 16 16 17 17 17 17 18 20 21 22 23 23 22 23 23 21 21 21 21 21 20 21 23 25 24 24 23 21 19 19 18 17 16 14 14 14 13 12 12 12 13 13 11 11 11 10 11 12 14 15 15 15 14 14 15 16 17 16 16 16 16 16 15
17 16 16 15 15 15 14 13 11 9 8 7 7 7 8 9 9 9 9 10 12 13 14 14 14 15 15 16 17 16 16 17 19 20 21 22 22 22 22 21 21 22 20 20 20 19 21 23 24 24 23 22 21 20 20 19 18 18 16 15 15 14 13 12 12 14 14 11 11 11 11 11 11 13 14 15 16 13 13 14 15 16 16 16 16 16 16 16
17 16 15 15 14 14 13 11 9 7 6 6 6 6 7 8 9 8 8 9 10 11 13 13 14 14 14 14 15 15 16 17 19 20 21 21 21 22 21 20 21 22 21 21 21 20 20 21 21 22 22 22 22 21 21 20 19 18 17 16 16 15 14 13 13 15 13 12 11 10 10 10 10 12 13 15 16 14 14 13 13 15 16 16 16 15 16 17
16 15 15 14 14 13 12 11 8 6 6 6 5 5 6 7 7 7 7 8 8 9 12 13 13 13 13 13 14 14 14 16 18 19 21 22 21 21 21 20 20 21 22 22 22 21 21 19 19 21 21 22 23 23 22 21 20 19 19 18 17 16 15 14 15 15 13 12 12 11 9 9 11 13 14 15 16 16 16 14 13 15 15 16 16 16 17 17
15 15 15 14 13 13 12 9 6 7 7 5 3 4 4 4 5 6 5 6 7 9 11 12 11 11 12 12 13 15 14 15 18 19 20 21 21 20 20 20 20 21 22 22 21 22 22 20 19 21 21 22 23 23 24 23 21 19 19 20 18 16 14 15 17 17 14 13 14 13 9 9 11 13 15 15 16 17 17 16 15 16 15 16 16 16 17 17
15 15 14 13 13 12 10 7 6 7 6 3 3 3 3 2 3 4 4 4 5 8 10 11 10 10 11 12 12 13 13 13 17 18 18 20 21 19 19 19 19 20 21 21 21 21 21 20 20 22 22 22 23 24 25 24 21 20 20 20 19 17 15 18 20 18 16 14 16 15 11 10 12 13 14 15 17 18 18 16 17 17 17 17 17 17 17 17
15 14 13 13 12 11 8 6 6 6 3 2 2 2 1 0 2 3 3 3 4 7 9 10 10 9 11 12 12 12 12 13 15 17 18 20 20 19 19 19 19 20 20 20 20 21 21 20 20 22 22 22 23 24 25 24 22 21 20 19 19 17 17 20 21 19 16 14 15 16 13 11 13 14 14 15 16 18 19 17 17 18 18 18 17 18 18 17
14 13 13 12 11 9 7 6 6 4 2 2 2 2 2 1 2 3 4 3 4 5 7 9 9 9 10 12 13 13 12 13 13 16 18 19 18 18 19 19 19 20 20 20 21 20 20 21 21 22 22 22 23 24 24 24 23 22 19 17 18 18 19 20 20 18 17 15 16 17 14 11 13 14 14 15 16 18 20 19 18 19 20 19 18 18 18 18
13 13 12 11 10 8 6 6 5 4 3 4 4 3 2 2 3 4 4 4 4 5 6 7 7 8 9 11 12 13 12 12 12 15 17 18 18 17 18 20 20 20 19 20 21 20 20 21 21 21 22 22 23 23 24 24 23 21 19 17 15 16 18 18 17 17 16 16 18 19 17 12 12 14 16 17 17 18 20 19 19 20 21 20 19 19 19 18
13 12 10 9 8 7 6 6 5 4 4 4 4 3 3 3 4 4 3 3 3 4 5 5 6 7 8 9 11 12 12 12 13 14 16 17 17 16 17 19 18 18 18 18 20 21 21 21 21 21 22 22 22 22 24 25 24 21 19 16 13 14 17 17 16 15 15 16 18 20 19 14 11 14 18 17 15 17 20 19 19 21 21 21 20 19 20 19
12 10 9 8 7 6 6 6 5 4 4 4 4 4 4 4 5 4 3 3 2 3 4 5 6 6 7 9 11 11 11 12 12 14 15 15 15 15 16 17 17 17 17 16 18 20 20 21 21 21 22 21 21 21 23 25 24 21 19 18 15 15 17 17 16 15 14 16 17 19 20 15 12 15 18 17 13 14 19 20 19 21 22 22 21 20 21 20
11 10 8 6 5 5 5 5 4 4 4 4 5 5 5 5 5 4 2 1 1 2 3 5 5 6 8 9 10 10 10 10 11 14 15 14 14 15 16 17 17 16 16 16 17 17 20 21 21 20 21 21 20 21 22 23 23 22 21 20 18 16 16 16 16 16 16 17 17 18 19 16 15 16 16 17 15 14 18 20 20 21 22 22 22 22 21 21
10 9 6 4 4 4 4 4 4 4 4 5 5 5 6 6 5 3 2 1 1 2 4 5 5 6 8 8 9 10 9 10 11 13 13 12 12 14 15 16 17 16 15 16 16 16 18 20 20 19 20 21 22 21 22 23 24 24 23 22 20 17 17 18 17 16 17 18 18 18 19 17 16 16 15 16 16 15 17 19 20 21 22 23 23 22 21 21
10 7 5 3 3 3 3 4 4 4 5 6 6 6 7 6 4 3 3 2 0 1 3 5 5 5 8 8 9 9 9 9 10 11 12 11 11 11 13 14 15 15 15 15 16 16 17 18 20 21 20 20 22 23 23 23 23 23 23 23 21 20 19 19 19 17 16 17 17 18 18 16 15 16 16 16 15 14 16 17 18 18 18 20 21 22 21 21
8 5 3 3 2 2 2 3 3 4 5 6 6 6 6 4 3 3 3 2 1 1 1 3 4 5 6 7 8 9 9 9 9 10 11 11 11 11 12 14 15 16 16 15 16 16 17 18 20 21 21 20 21 22 22 21 21 22 23 22 21 21 19 18 19 19 17 15 16 18 17 16 16 16 15 15 15 14 14 15 16 16 15 17 19 20 21 21
6 4 2 2 2 1 2 2 2 3 5 6 6 6 5 3 3 3 3 2 2 1 1 1 3 5 5 6 7 7 8 9 9 10 11 12 11 10 11 14 14 16 18 17 16 16 16 18 18 19 20 20 21 21 21 22 22 22 23 23 22 21 19 16 17 18 17 15 16 18 17 15 16 16 15 15 15 15 15 14 15 16 17 17 18 19 20 20
4 3 2 1 1 1 2 2 2 3 4 5 6 4 3 3 3 3 3 3 2 1 1 2 3 4 5 6 6 7 8 9 9 10 10 11 11 10 11 13 14 15 17 18 17 16 16 17 17 18 20 20 20 20 19 21 22 22 23 24 22 19 18 16 15 16 17 16 16 17 17 17 16 16 15 15 16 16 16 15 15 16 17 16 17 19 19 19
3 3 2 1 0 1 2 2 2 3 3 4 4 4 3 3 4 4 4 3 2 1 3 3 3 4 5 6 6 6 6 8 9 10 10 10 10 11 11 12 13 14 15 16 16 15 16 16 17 19 20 19 19 19 19 19 21 22 23 24 22 20 19 18 17 18 18 18 18 16 16 17 18 17 16 16 17 17 17 16 15 15 16 16 16 17 19 20
3 2 2 1 1 1 2 2 2 3 4 4 4 3 3 3 4 5 5 3 1 1 3 3 3 4 4 6 6 5 6 7 8 9 10 10 11 11 10 11 13 12 12 15 15 15 15 16 16 18 19 19 19 20 21 21 20 20 20 22 22 21 20 19 18 18 19 19 20 18 16 18 19 18 16 16 17 18 17 16 15 14 15 16 16 17 18 20
2 2 1 1 2 2 2 2 2 3 3 3 3 2 3 3 4 6 6 4 1 1 2 3 3 3 4 5 5 6 6 6 7 8 9 9 10 11 10 11 12 11 11 13 14 15 15 15 16 17 17 18 19 20 22 22 22 21 20 21 22 22 21 19 17 17 18 19 19 19 18 19 20 19 18 17 17 17 16 16 15 15 16 16 16 16 17 18
2 2 0 1 2 2 2 2 2 2 3 2 2 2 3 3 4 6 6 4 1 1 2 3 4 4 5 5 4 5 6 5 5 7 8 8 10 10 9 10 12 12 11 12 13 14 15 14 15 16 16 17 19 20 21 22 22 23 22 22 22 22 22 20 18 18 18 18 19 20 19 20 20 19 19 18 17 17 16 15 15 15 16 16 15 15 16 17
2 1 1 1 2 2 2 2 1 2 2 2 2 2 3 3 4 5 5 4 1 1 1 3 4 4 5 5 5 5 5 5 4 5 7 8 10 10 9 10 11 11 12 13 14 15 15 14 15 16 17 18 19 19 19 20 20 20 21 22 22 22 22 22 21 20 18 18 19 18 18 20 21 20 20 19 18 17 16 15 15 14 15 16 15 15 15 15
0 1 1 1 1 1 2 2 2 2 2 1 1 2 3 3 4 4 4 3 2 1 1 2 4 4 4 5 6 5 5 5 5 5 6 8 9 10 9 9 9 10 11 13 13 14 15 14 14 16 16 17 17 16 16 17 18 18 19 21 21 22 22 23 22 21 19 20 20 18 17 19 21 21 20 20 20 18 17 17 16 15 16 17 16 16 16 15
1 2 1 1 0 2 1 1 1 1 2 2 1 2 4 3 4 4 3 3 3 1 1 2 3 4 5 5 5 5 5 6 5 5 6 7 7 8 7 7 8 10 11 13 13 13 13 14 14 14 14 15 15 14 14 16 17 18 20 21 21 21 21 22 22 20 20 21 22 20 18 19 21 21 21 21 21 20 19 18 18 17 17 18 16 16 17 16
1 2 2 2 1 1 1 1 1 1 1 2 2 2 3 3 4 4 2 3 4 2 1 1 2 3 4 5 5 5 5 6 6 6 6 6 6 6 5 5 7 10 11 13 14 13 13 13 13 14 14 15 16 15 15 16 18 19 19 20 21 21 21 22 22 22 22 22 22 21 20 20 21 22 21 21 21 21 20 19 19 18 19 19 18 17 16 16
1 2 3 2 1 1 0 1 1 1 1 1 1 2 3 2 4 4 2 3 4 3 1 0 1 2 2 3 4 4 4 5 6 6 6 6 7 7 5 5 6 8 9 11 12 13 14 12 12 13 14 15 17 17 17 16 17 19 19 19 20 22 22 21 21 23 24 23 23 23 21 21 23 24 23 22 21 21 21 20 20 20 19 19 18 17 16 15
2 2 3 2 1 0 0 1 1 0 1 1 0 1 2 2 4 5 3 2 3 3 1 1 1 1 2 3 4 4 4 5 5 6 7 7 8 8 6 5 5 6 8 10 10 12 14 12 11 12 13 14 16 17 16 15 16 19 20 19 19 21 22 22 22 24 24 23 23 24 24 24 24 25 24 23 22 21 21 21 20 20 19 19 18 16 16 16
2 3 3 2 2 2 2 2 1 1 1 0 0 1 2 3 3 4 3 2 3 3 1 1 2 2 2 3 4 4 4 5 5 6 7 7 8 8 7 7 6 5 7 9 10 12 14 13 13 12 12 12 12 13 13 13 15 17 19 19 19 19 21 23 23 23 23 24 24 26 26 25 24 24 24 23 22 21 21 21 20 19 18 18 17 16 15 15
2 3 3 2 3 4 4 4 2 1 1 1 1 1 2 3 3 4 3 2 2 3 1 1 3 3 2 2 4 4 5 5 5 6 7 7 7 7 7 7 7 6 6 9 10 12 14 14 14 14 13 11 10 11 11 11 13 15 16 18 19 18 18 21 22 21 21 21 23 25 25 23 22 23 23 23 22 22 21 21 20 19 18 17 16 15 14 15
2 3 4 3 3 4 4 4 3 0 1 2 1 1 2 3 3 4 3 2 1 2 2 0 2 3 2 1 2 5 6 7 6 6 7 7 7 7 6 7 7 7 7 8 10 11 13 14 14 15 14 12 10 9 10 11 12 13 13 15 17 18 17 18 20 21 20 19 20 22 23 21 21 23 23 23 23 22 22 21 20 19 18 17 15 15 14 14
3 4 4 4 3 4 4 3 3 1 2 2 1 1 3 3 3 2 2 2 1 0 1 1 1 2 2 1 1 4 7 9 8 7 7 7 8 8 7 7 7 7 7 8 9 10 12 13 14 14 16 17 13 9 10 12 12 12 12 12 14 17 18 18 19 20 20 20 20 21 23 23 23 23 23 23 23 23 22 21 20 19 18 17 16 15 15 14
3 4 4 4 4 3 3 4 3 2 2 3 2 1 2 2 2 1 2 2 3 2 0 1 1 1 2 2 2 5 7 9 10 10 8 8 8 9 9 8 8 7 7 7 8 9 11 12 13 14 17 20 17 11 11 11 11 13 14 14 14 16 18 18 18 18 19 20 21 22 23 23 24 24 24 24 24 24 22 21 20 19 18 17 16 15 15 14
Wind_Direction
310 306 303 300 298 295 293 290 287 284 281 278 275 273 270 267 265 264 263 262 261 259 257 256 254 251 247 245 241 239 237 232 229 223 221 219 215 213 207 203 200 196 195 193 192 189 188 190 188 186 184 182 182 184 177 165 128 98 83 91 125 142 144 148 151 153 154 155 155 158 161 156 152 152 145 139 136 136 135 135 137 133 134 139 142 145 145 145
311 307 303 300 297 295 293 290 288 285 282 278 275 272 269 266 264 262 260 260 259 258 256 255 253 251 248 245 242 240 238 233 231 227 222 219 215 211 206 203 198 196 195 194 192 189 188 189 187 184 184 183 182 183 175 161 136 117 93 97 131 148 148 149 148 151 154 154 155 158 160 157 156 154 149 143 139 138 134 135 135 130 133 138 142 145 145 147
314 309 305 301 298 296 293 291 288 285 282 279 276 272 269 266 263 260 258 257 257 256 255 253 251 250 248 244 242 241 238 233 230 227 222 217 213 210 205 202 199 197 197 196 193 191 189 188 187 185 186 186 185 185 179 164 147 134 112 107 141 154 153 153 150 153 155 155 155 157 159 156 157 156 151 146 139 141 141 139 137 135 139 142 144 146 146 148
317 312 307 303 299 296 293 291 288 286 283 280 276 273 269 266 263 259 257 255 254 254 253 252 250 248 247 245 241 239 236 232 227 222 219 214 210 207 204 202 202 200 200 199 196 194 192 189 190 189 188 190 188 186 183 174 159 139 131 122 141 154 156 154 152 153 152 155 157 155 155 155 158 158 154 149 142 144 149 147 144 143 144 145 146 147 148 149
318 315 310 306 302 298 295 292 288 286 283 280 277 273 270 266 263 259 256 254 252 252 251 250 249 246 245 243 240 235 230 226 222 218 215 212 208 204 203 203 203 201 200 201 198 197 196 192 192 193 194 193 187 185 186 181 169 151 154 139 138 152 158 156 154 155 154 155 157 155 157 158 160 156 154 155 150 147 150 151 150 147 146 147 147 147 148 150
317 315 312 308 304 301 297 294 290 286 282 279 277 274 270 266 263 259 255 253 251 250 249 248 247 245 242 241 237 231 225 223 221 216 213 211 206 203 202 203 203 202 201 202 201 198 198 195 194 196 197 194 188 190 190 180 176 170 174 159 148 149 150 154 155 156 157 157 158 159 158 158 159 157 155 156 154 147 148 150 150 149 148 148 147 147 149 151
317 314 312 309 306 303 300 296 292 288 284 280 276 273 270 266 262 259 255 253 250 248 248 247 245 243 240 238 233 229 226 225 222 216 213 210 206 203 202 203 203 202 202 202 202 200 198 197 198 198 197 198 194 197 196 182 179 181 182 166 158 153 144 150 155 156 157 159 161 161 158 160 161 162 161 156 156 153 148 148 149 149 149 149 149 149 150 152
316 314 311 309 306 303 301 298 295 291 286 281 277 273 269 266 262 258 255 252 250 248 246 245 243 240 237 234 230 231 229 225 220 214 212 209 206 203 202 204 204 202 202 202 202 200 198 198 200 199 199 204 201 199 195 183 183 188 189 172 155 151 146 146 150 151 153 159 166 165 163 164 164 163 163 160 158 155 148 147 149 150 150 151 151 151 152 154
316 313 311 309 306 303 301 298 296 292 289 284 279 273 269 265 261 258 254 251 250 247 245 243 241 237 233 231 230 231 227 221 216 212 211 210 208 204 203 205 205 203 202 203 203 201 200 200 201 201 201 207 211 207 194 188 195 198 194 178 152 145 147 145 141 145 153 163 169 166 162 166 169 164 165 168 159 152 149 148 151 153 153 153 154 154 154 155
316 313 311 309 305 303 301 298 296 293 290 286 281 274 269 264 261 257 253 251 248 246 244 240 238 234 231 229 227 226 223 217 215 212 210 210 208 206 206 206 205 203 202 203 202 201 201 200 200 201 204 210 215 211 198 194 201 198 190 173 162 156 154 148 140 147 158 167 171 168 163 168 177 173 170 173 161 152 151 151 154 156 155 155 156 156 156 157
316 313 311 308 305 302 300 298 295 292 289 286 282 276 269 264 260 257 254 250 247 245 242 238 235 231 230 227 224 224 221 217 216 214 211 210 208 208 208 206 205 204 202 202 202 202 203 202 200 200 205 211 215 213 204 202 205 194 181 168 168 164 160 157 150 158 163 168 172 168 163 168 181 183 174 170 161 155 153 154 157 159 159 158 158 158 159 160
316 313 311 308 304 301 299 297 294 291 289 285 282 276 270 264 260 257 254 251 247 242 239 236 231 229 229 228 225 223 220 219 218 216 215 212 211 210 209 207 206 204 202 201 201 202 204 204 202 204 209 213 215 215 208 210 213 193 180 177 178 170 171 173 167 168 167 171 172 166 165 171 179 181 175 169 163 159 156 156 160 161 162 161 161 161 162 163
316 313 310 307 304 300 298 295 293 290 288 284 280 275 269 263 259 257 253 250 246 241 236 232 229 229 229 228 225 222 221 221 218 217 217 215 212 210 209 208 206 205 203 201 200 202 205 207 207 209 215 214 214 215 211 212 208 189 185 190 189 185 192 193 181 170 161 167 175 173 172 177 181 181 179 174 167 163 160 160 163 164 164 164 165 165 166 167
315 313 310 307 304 301 298 295 293 289 286 283 278 273 267 262 259 256 253 250 245 240 233 228 227 227 227 227 224 221 222 220 217 217 215 213 210 208 208 207 206 206 204 202 202 202 205 209 210 213 217 214 213 216 211 208 202 189 191 203 205 200 199 201 193 178 162 167 179 179 175 179 183 183 182 177 171 167 164 165 167 166 165 166 167 168 169 170
316 313 311 308 305 302 300 296 293 289 286 282 277 272 266 261 258 255 252 248 243 237 229 225 226 226 227 228 223 220 219 216 216 215 212 210 206 206 206 204 205 205 204 203 203 205 207 210 211 212 215 212 209 210 208 208 207 198 194 205 215 208 201 201 201 194 177 173 185 184 177 182 183 182 182 178 176 172 167 167 170 167 164 166 169 170 172 173
317 314 312 310 307 304 301 298 295 291 287 282 277 271 264 259 255 253 249 244 239 232 224 223 225 224 224 224 220 217 215 214 214 212 210 207 204 203 202 201 203 203 203 203 205 209 212 213 213 210 210 208 205 204 206 207 208 207 202 204 209 206 204 202 206 207 185 175 192 193 182 183 185 185 181 178 181 177 170 170 172 169 166 167 170 172 174 175
318 316 313 311 308 305 302 300 296 293 290 284 277 269 263 257 252 249 246 241 236 228 224 225 224 223 223 221 217 214 213 214 214 210 208 206 203 201 197 198 201 200 203 205 208 213 213 213 211 210 209 207 205 202 205 208 205 207 207 206 208 205 204 201 205 208 188 180 195 196 191 190 186 184 180 181 185 180 174 174 173 173 170 171 173 174 176 177
320 318 315 312 309 307 305 302 299 297 293 286 277 268 260 253 249 245 242 239 234 229 228 226 220 219 220 218 215 214 215 216 214 209 207 206 203 201 197 198 198 197 202 207 210 212 212 212 210 209 211 208 206 203 204 207 202 202 204 206 208 206 207 206 205 202 190 189 194 190 192 189 180 181 183 186 188 183 179 177 175 175 174 175 178 179 179 179
322 319 316 314 313 311 309 306 304 301 295 287 275 263 253 248 246 243 242 239 235 231 230 222 215 215 216 217 217 219 219 217 214 209 206 205 203 202 200 198 198 198 201 206 209 209 209 211 210 210 211 209 207 203 202 205 199 198 203 204 204 207 213 212 208 203 193 191 195 192 190 184 180 184 187 189 189 184 182 181 179 178 178 178 181 184 183 181
324 322 320 318 318 316 314 311 308 304 296 283 269 256 247 246 244 243 244 242 237 234 231 222 216 219 221 220 219 221 220 215 212 208 205 204 201 201 203 202 200 201 202 204 209 210 207 210 213 212 210 208 207 204 204 208 205 200 201 203 204 208 214 210 206 204 196 194 198 196 191 186 185 188 188 188 189 186 183 184 182 180 181 182 184 187 185 183
327 325 324 324 323 321 318 315 311 305 295 280 266 252 245 243 242 244 246 246 241 233 229 222 215 219 222 220 218 216 216 214 212 209 205 203 200 201 205 204 201 204 207 206 208 210 209 211 214 212 211 209 207 205 206 209 209 207 203 202 205 211 214 208 204 199 196 200 203 197 189 187 187 189 188 187 191 191 187 188 187 184 184 186 187 187 186 185
330 329 328 328 327 325 322 319 315 306 299 288 273 254 244 243 243 244 243 246 244 230 222 216 213 219 221 220 218 213 211 213 213 211 205 202 202 203 205 204 203 207 209 207 208 212 212 215 215 213 211 211 210 207 207 210 211 210 207 204 207 213 211 204 202 198 198 206 205 193 186 189 190 190 189 189 192 196 195 195 193 189 187 189 190 187 185 184
333 331 331 331 329 328 325 323 319 310 305 296 279 260 252 252 249 247 241 239 241 227 213 208 210 216 219 220 214 206 206 208 209 209 205 201 204 205 203 204 206 207 209 207 206 209 212 214 214 212 210 210 213 211 208 211 213 210 207 206 208 210 208 206 203 198 199 206 200 188 188 196 197 193 192 193 194 199 203 204 200 195 192 193 192 187 184 182
335 334 334 333 332 330 327 325 322 317 312 299 283 268 264 260 248 244 238 228 229 222 208 204 207 212 215 213 204 199 204 207 206 206 203 200 203 205 205 206 206 208 211 208 207 210 214 216 212 211 209 207 211 213 209 210 214 213 209 209 209 208 210 209 201 195 198 206 200 189 191 206 207 199 198 198 197 200 206 209 206 201 198 196 192 188 186 184
337 337 337 336 335 333 329 327 326 328 322 307 297 287 278 266 242 230 222 215 220 220 207 201 206 212 212 205 199 200 204 208 206 203 202 200 201 204 207 208 207 210 212 209 208 212 217 217 210 209 210 207 209 213 210 208 212 216 211 209 209 208 210 205 198 198 202 209 207 199 195 209 210 201 199 200 199 202 205 209 208 203 199 197 193 188 188 188
337 338 339 339 339 337 335 334 333 334 327 310 315 314 298 270 221 201 192 190 203 210 203 198 203 209 207 203 201 200 202 211 208 203 201 202 203 204 206 210 209 209 209 207 210 213 214 212 206 208 210 208 209 211 210 206 209 216 214 209 209 210 208 202 200 204 206 207 209 209 207 208 209 205 200 199 200 203 204 205 207 205 201 198 195 191 188 189
338 340 342 342 343 345 345 343 341 343 341 330 341 345 341 90 159 171 165 160 187 201 200 200 203 206 206 206 202 195 202 211 207 205 204 202 205 204 205 210 208 207 206 206 212 213 211 210 207 208 209 208 210 211 208 204 206 214 212 206 209 210 206 203 204 208 209 204 204 212 211 205 210 209 198 196 200 203 203 204 207 207 204 201 198 194 189 190
340 342 344 344 345 350 355 358 1 10 26 25 26 36 52 97 143 156 147 155 190 194 191 199 206 208 210 209 202 198 204 203 201 209 206 201 203 203 206 209 205 206 207 205 212 214 209 209 209 209 210 210 211 209 205 202 206 213 210 209 214 213 208 206 206 208 209 202 202 212 211 205 215 211 198 198 204 206 206 207 207 205 205 204 200 197 192 191
340 342 346 348 348 355 8 14 23 41 47 45 48 48 54 96 129 136 136 147 175 185 184 194 203 207 209 206 204 204 205 201 201 208 205 202 203 202 206 209 205 208 211 207 213 215 210 211 210 209 211 212 210 207 203 201 206 209 208 213 220 213 206 204 206 207 208 205 205 209 207 204 216 212 201 203 211 213 210 209 208 204 205 206 204 200 195 192
341 344 350 354 357 9 23 27 40 52 42 37 38 40 54 90 119 124 132 139 157 184 188 194 203 204 199 196 203 206 205 208 207 202 201 201 202 204 207 209 206 209 214 214 216 217 215 215 214 211 211 210 206 205 202 201 204 204 203 208 212 210 204 201 206 208 210 215 213 208 205 203 212 212 205 206 213 213 208 207 207 205 206 207 206 203 198 195
341 346 353 0 7 19 34 40 46 44 33 28 28 43 68 88 102 112 136 155 163 191 199 203 206 201 190 188 197 200 201 211 208 197 198 200 202 207 210 211 211 211 218 220 219 220 217 215 215 213 210 205 204 206 204 201 202 203 204 204 203 206 205 205 212 213 215 222 217 208 206 209 215 215 211 212 216 210 205 205 204 204 206 207 206 205 202 198
339 343 349 359 11 25 40 44 38 31 31 32 35 53 82 89 80 90 132 171 173 204 213 211 207 199 191 187 193 197 196 204 202 194 197 198 201 209 210 211 212 213 218 218 217 220 217 215 215 213 211 205 202 207 206 200 199 202 205 204 202 205 208 211 216 218 219 222 217 205 205 215 221 218 217 218 217 210 206 205 204 203 204 206 207 205 204 202
336 340 348 358 14 29 38 39 33 34 36 35 43 64 84 85 70 57 47 49 169 215 213 206 204 195 187 185 195 197 193 198 198 194 196 196 201 213 214 211 208 208 213 214 216 218 216 218 216 212 213 207 201 204 205 203 202 204 205 204 203 206 209 211 212 215 217 220 219 207 204 215 221 219 222 223 219 210 204 204 205 206 206 206 207 206 205 204
333 339 354 2 11 21 31 41 39 40 37 36 53 71 73 71 55 34 33 35 12 265 224 207 202 188 183 189 196 193 189 197 195 190 196 198 202 213 214 212 210 206 208 213 217 212 209 216 215 210 212 208 202 202 202 202 204 206 207 205 206 209 209 210 210 210 210 211 210 203 205 215 217 217 223 224 219 205 197 199 199 202 207 207 208 208 207 206
333 341 1 6 9 14 31 43 40 44 39 39 61 74 66 55 27 27 26 7 6 342 269 213 189 176 182 193 200 196 189 195 194 188 193 197 201 211 211 213 215 207 203 208 213 210 209 215 215 213 213 208 204 204 201 200 203 207 206 204 209 213 209 209 211 208 201 201 204 203 210 218 216 219 224 220 213 198 189 192 192 195 200 203 206 209 210 209
338 351 10 10 10 36 54 49 55 62 48 47 61 66 61 45 21 22 7 349 0 340 267 190 160 165 184 197 205 206 194 193 194 189 192 196 200 209 208 210 214 209 204 203 208 211 211 216 217 215 214 209 204 205 204 202 204 207 206 206 211 212 206 205 211 209 201 200 209 210 214 220 216 218 221 214 208 202 198 196 196 197 197 198 203 207 211 211
349 359 0 348 2 74 74 69 80 68 50 56 61 54 50 32 6 356 345 346 352 5 121 135 142 156 180 192 201 212 204 199 198 192 197 201 202 208 211 210 210 208 206 204 208 211 210 216 218 211 212 210 203 202 205 205 204 204 207 209 211 212 211 208 208 210 206 207 213 213 213 215 213 216 218 211 206 207 207 204 202 202 199 198 201 204 209 210
353 3 4 350 68 98 97 97 84 57 48 56 46 31 35 19 352 342 339 339 341 37 103 130 148 158 171 178 192 209 201 197 201 196 196 199 198 203 208 210 210 210 211 206 207 210 208 214 218 209 209 212 206 202 205 208 208 205 206 209 210 211 213 212 210 211 210 211 215 216 216 215 212 214 218 212 206 204 206 207 206 206 204 203 202 204 208 209
3 25 41 35 50 88 108 103 70 50 50 47 35 28 34 14 352 353 352 343 336 81 111 142 159 159 166 171 182 195 184 187 196 192 192 194 194 198 201 204 208 212 210 202 203 209 207 207 213 212 209 210 210 207 207 209 209 207 207 211 212 212 211 211 213 212 209 212 216 217 219 219 215 213 212 211 208 204 206 209 210 208 207 208 207 205 207 209
13 47 58 23 51 97 110 85 59 63 56 41 41 35 18 7 358 359 6 12 356 163 155 176 171 163 179 180 177 183 180 182 187 186 192 197 197 202 205 205 206 208 205 199 201 207 207 204 208 212 210 206 208 211 210 208 207 207 209 211 212 213 212 211 215 216 210 212 215 216 219 222 219 214 210 207 207 205 205 208 208 207 206 208 210 208 207 208
20 56 72 40 76 110 99 66 51 67 54 25 30 17 353 1 1 357 7 19 9 209 186 188 187 186 192 189 182 182 179 182 188 187 195 203 202 205 213 212 210 208 204 203 205 207 207 205 206 209 207 205 209 213 210 208 208 208 209 211 211 211 210 210 217 221 215 213 214 214 218 223 222 218 213 210 210 209 205 203 204 206 205 205 206 205 204 205
40 89 138 52 66 97 79 52 15 52 49 20 14 0 349 360 3 359 5 11 355 255 222 195 198 202 199 196 198 191 181 188 202 198 199 205 203 204 217 222 216 208 202 205 211 210 206 205 206 209 209 209 215 216 211 209 209 208 210 212 211 211 209 209 215 220 217 216 216 214 218 222 221 219 214 211 210 208 203 200 202 207 206 203 203 204 204 204
43 195 222 7 40 110 66 13 339 19 11 329 348 356 358 8 3 1 10 13 359 286 254 210 200 202 205 206 203 197 191 194 203 206 204 207 205 207 223 231 220 211 206 206 211 211 208 207 209 212 212 213 217 217 212 211 210 209 213 213 211 212 213 211 215 217 214 214 215 214 221 222 218 217 214 208 206 205 203 201 202 206 204 199 201 206 207 206
226 240 268 334 306 156 94 349 337 359 333 338 22 1 0 22 15 3 12 10 352 313 224 218 204 198 205 207 202 203 205 199 202 210 203 201 209 216 228 234 225 219 213 209 211 211 209 208 208 209 210 211 214 216 217 218 214 212 216 218 214 211 211 213 216 218 215 215 213 213 220 220 215 214 213 210 208 208 208 207 205 205 203 200 202 207 208 208
232 251 271 320 357 167 210 230 183 193 322 15 41 357 353 17 15 8 24 13 357 355 171 220 217 200 203 206 206 212 211 200 205 215 209 209 217 222 234 236 226 224 218 213 213 209 205 206 204 201 204 207 209 212 217 220 218 215 216 220 218 210 208 212 215 215 216 216 214 215 217 215 211 211 212 212 211 211 211 210 208 206 205 205 207 208 209 210
237 255 266 296 342 87 252 240 186 199 216 48 27 356 4 11 355 358 21 17 359 3 56 204 238 211 202 208 211 218 222 211 209 211 212 220 221 222 235 236 226 229 224 217 215 208 202 203 200 196 200 206 209 214 220 220 217 217 217 219 221 215 210 212 215 217 217 215 216 220 216 209 208 210 211 211 211 211 211 210 209 209 209 209 209 209 211 212
246 249 247 259 262 264 326 326 11 317 213 149 61 358 19 12 352 358 11 354 341 348 34 28 328 252 222 220 208 214 225 219 215 215 217 222 224 228 240 236 229 239 228 220 218 209 203 206 206 202 202 206 211 218 223 219 215 217 218 217 221 219 213 213 218 220 215 213 219 221 214 209 211 212 212 211 211 210 211 209 208 209 209 207 209 211 213 215
243 236 232 231 224 219 232 256 316 22 51 95 73 355 0 3 357 358 355 335 332 335 308 301 329 303 250 230 204 212 223 211 215 228 224 225 228 235 245 240 236 244 227 220 220 208 204 210 212 209 207 207 213 219 221 218 215 217 218 218 220 219 214 214 219 220 216 218 223 219 213 214 216 213 210 210 209 208 207 206 204 204 203 204 208 214 217 218
245 231 242 248 226 223 234 247 254 29 34 343 342 328 321 341 341 330 329 335 335 330 307 247 290 303 294 248 210 214 220 205 213 231 226 227 231 229 235 237 237 244 230 222 223 212 207 213 217 214 210 208 216 223 223 222 220 219 221 220 217 215 214 215 218 218 219 222 221 214 212 217 218 212 208 206 205 204 203 203 203 203 203 204 208 213 214 215
259 241 248 251 243 246 253 250 238 261 333 310 319 319 312 333 335 322 328 349 328 318 330 243 272 290 307 292 215 214 214 203 205 222 220 224 230 223 223 226 229 238 234 224 226 220 212 216 220 217 213 211 216 226 230 227 222 220 222 220 213 211 214 216 215 214 215 217 215 210 210 215 215 209 204 202 202 202 202 204 205 205 205 205 206 208 210 211
262 250 245 235 243 262 258 243 234 237 288 292 285 316 328 333 330 328 343 5 34 313 285 205 231 280 311 341 268 234 228 215 215 226 219 215 222 220 220 225 226 233 235 226 225 225 218 219 221 218 216 218 217 227 240 232 222 220 223 221 217 215 215 215 215 214 212 210 209 209 211 213 211 206 202 202 201 201 203 204 204 204 204 204 206 210 212 211
270 257 247 225 229 259 251 237 242 236 254 270 265 304 347 337 334 14 27 12 29 52 116 185 196 264 294 310 292 266 251 235 231 236 226 217 222 220 219 229 232 227 225 220 222 226 222 219 221 218 218 221 222 230 241 232 222 224 223 220 220 218 213 212 215 215 210 208 210 214 215 213 208 204 204 203 202 203 204 203 202 203 204 205 208 209 209 209